This is the latest recevied weather packets stored in our database for station/object APPOWX. If no packets are shown the sender has not sent any weather packets the latest 10 day(s).
| Time | Temp. | Humidity | Pressure | Rain* | Wind** | Luminosity | Snow |
|---|---|---|---|---|---|---|---|
| 1777317079 | 18.89° C | 45% | 1025.4 hPa | 0 mm | - | - | - |
| 1777317019 | 19.44° C | 45% | 1025.3 hPa | 0 mm | - | - | - |
| 1777316959 | 19.44° C | 46% | 1025.5 hPa | 0 mm | - | - | - |
| 1777316899 | 18.89° C | 45% | 1025.4 hPa | 0 mm | - | - | - |
| 1777316839 | 18.89° C | 45% | 1025.1 hPa | 0 mm | - | - | - |
| 1777316779 | 18.89° C | 43% | 1025.4 hPa | 0 mm | - | - | - |
| 1777316718 | 19.44° C | 45% | 1025.2 hPa | 0 mm | - | - | - |
| 1777316658 | 19.44° C | 44% | 1025.4 hPa | 0 mm | - | - | - |
| 1777316599 | 18.89° C | 49% | 1025.4 hPa | 0 mm | - | - | - |
| 1777316538 | 18.89° C | 45% | 1025.3 hPa | 0 mm | - | - | - |
| 1777316478 | 18.89° C | 42% | 1025.3 hPa | 0 mm | - | - | - |
| 1777316418 | 18.89° C | 44% | 1025.3 hPa | 0 mm | - | - | - |
| 1777316358 | 18.89° C | 47% | 1025.3 hPa | 0 mm | - | - | - |
| 1777316297 | 18.89° C | 45% | 1025.3 hPa | 0 mm | - | - | - |
| 1777316238 | 18.33° C | 49% | 1025.4 hPa | 0 mm | - | - | - |
| 1777316178 | 18.33° C | 47% | 1025.4 hPa | 0 mm | - | - | - |
| 1777316117 | 18.33° C | 44% | 1025.3 hPa | 0 mm | - | - | - |
| 1777316058 | 18.89° C | 45% | 1025.3 hPa | 0 mm | - | - | - |
| 1777315998 | 19.44° C | 46% | 1025.3 hPa | 0 mm | - | - | - |
| 1777315937 | 18.89° C | 44% | 1025.4 hPa | 0 mm | - | - | - |
| 1777315877 | 18.89° C | 48% | 1025.3 hPa | 0 mm | - | - | - |
| 1777315817 | 19.44° C | 46% | 1025.3 hPa | 0 mm | - | - | - |
| 1777315757 | 19.44° C | 48% | 1025.3 hPa | 0 mm | - | - | - |
| 1777315697 | 19.44° C | 45% | 1025.4 hPa | 0 mm | - | - | - |
| 1777315637 | 19.44° C | 48% | 1025.2 hPa | 0 mm | - | - | - |
* Rain latest hour (hover to see other rain measurements)
** Current wind speed in m/s (hover to see current wind gust speed)